contact:dominique.lefevre@mio.osupytheas.fr, maurice.libes@osupytheas.fr, didier.mallarino@osupytheas.fr
Project:EMSO http://www.emso-fr.org/EMSO-France
Depth: 2436.0 m
Title:EMSO Ligure Ouest : Data MII capteur MICROCAT
DateTime_Computer,Latitude,Longitude,Temperature,Conductivity,Pressure,DateTime_Instrument
DateTime_Computer,Latitude,Longitude,degC,S m-1,dbar,DateTime_Instrument
2022-02-20T00:01:09Z,42.805,6.029,13.3006,4.60032,2470.614,2022-2-20T02:02:43Z
2022-02-20T00:04:12Z,42.805,6.029,13.3047,4.60058,2470.6,2022-2-20T02:05:46Z
2022-02-20T00:07:15Z,42.805,6.029,13.3074,4.60072,2470.624,2022-2-20T02:08:49Z
2022-02-20T00:10:18Z,42.805,6.029,13.3008,4.60049,2470.577,2022-2-20T02:11:52Z
2022-02-20T00:13:22Z,42.805,6.029,13.3057,4.60064,2470.591,2022-2-20T02:14:55Z
2022-02-20T00:16:25Z,42.805,6.029,13.3043,4.60067,2470.628,2022-2-20T02:17:59Z
2022-02-20T00:19:28Z,42.805,6.029,13.3030,4.60062,2470.6,2022-2-20T02:21:02Z
2022-02-20T00:22:31Z,42.805,6.029,13.3049,4.60049,2470.591,2022-2-20T02:24:05Z
2022-02-20T00:25:34Z,42.805,6.029,13.3039,4.60060,2470.6,2022-2-20T02:27:08Z
2022-02-20T00:28:37Z,42.805,6.029,13.3015,4.60039,2470.591,2022-2-20T02:30:11Z
2022-02-20T00:31:40Z,42.805,6.029,13.3006,4.60049,2470.567,2022-2-20T02:33:14Z
2022-02-20T00:34:43Z,42.805,6.029,13.3003,4.60042,2470.553,2022-2-20T02:36:17Z
2022-02-20T00:37:46Z,42.805,6.029,13.2998,4.60034,2470.637,2022-2-20T02:39:20Z
2022-02-20T00:40:50Z,42.805,6.029,13.3002,4.60042,2470.553,2022-2-20T02:42:24Z
2022-02-20T00:43:53Z,42.805,6.029,13.3000,4.60035,2470.567,2022-2-20T02:45:27Z
2022-02-20T00:46:56Z,42.805,6.029,13.3015,4.60036,2470.539,2022-2-20T02:48:30Z
2022-02-20T00:49:59Z,42.805,6.029,13.3015,4.60061,2470.553,2022-2-20T02:51:33Z
2022-02-20T00:53:02Z,42.805,6.029,13.3013,4.60040,2470.553,2022-2-20T02:54:36Z
2022-02-20T00:56:05Z,42.805,6.029,13.3009,4.60037,2470.553,2022-2-20T02:57:39Z
2022-02-20T00:59:08Z,42.805,6.029,13.3012,4.60034,2470.614,2022-2-20T03:00:42Z
2022-02-20T01:02:11Z,42.805,6.029,13.3014,4.60058,2470.614,2022-2-20T03:03:45Z
2022-02-20T01:05:15Z,42.805,6.029,13.3036,4.60064,2470.577,2022-2-20T03:06:49Z
2022-02-20T01:08:18Z,42.805,6.029,13.3047,4.60038,2470.577,2022-2-20T03:09:52Z
2022-02-20T01:11:21Z,42.805,6.029,13.3029,4.60072,2470.53,2022-2-20T03:12:55Z
2022-02-20T01:14:24Z,42.805,6.029,13.3036,4.60050,2470.516,2022-2-20T03:15:58Z
2022-02-20T01:17:27Z,42.805,6.029,13.3033,4.60062,2470.553,2022-2-20T03:19:01Z
2022-02-20T01:20:30Z,42.805,6.029,13.3040,4.60059,2470.567,2022-2-20T03:22:04Z
2022-02-20T01:23:33Z,42.805,6.029,13.3041,4.60084,2470.53,2022-2-20T03:25:07Z
2022-02-20T01:26:36Z,42.805,6.029,13.3036,4.60104,2470.53,2022-2-20T03:28:10Z
2022-02-20T01:29:40Z,42.805,6.029,13.3051,4.60077,2470.567,2022-2-20T03:31:14Z
2022-02-20T01:32:43Z,42.805,6.029,13.3036,4.60102,2470.567,2022-2-20T03:34:17Z
2022-02-20T01:35:46Z,42.805,6.029,13.3037,4.60085,2470.544,2022-2-20T03:37:20Z
2022-02-20T01:38:49Z,42.805,6.029,13.3043,4.60049,2470.553,2022-2-20T03:40:23Z
2022-02-20T01:41:52Z,42.805,6.029,13.3041,4.60072,2470.544,2022-2-20T03:43:26Z
2022-02-20T01:44:55Z,42.805,6.029,13.3029,4.60054,2470.567,2022-2-20T03:46:29Z
2022-02-20T01:47:58Z,42.805,6.029,13.3031,4.60067,2470.544,2022-2-20T03:49:32Z
2022-02-20T01:51:01Z,42.805,6.029,13.3036,4.60088,2470.553,2022-2-20T03:52:35Z
2022-02-20T01:54:05Z,42.805,6.029,13.3039,4.60080,2470.52,2022-2-20T03:55:39Z
2022-02-20T01:57:08Z,42.805,6.029,13.3030,4.60081,2470.53,2022-2-20T03:58:42Z
2022-02-20T02:00:11Z,42.805,6.029,13.3050,4.60102,2470.544,2022-2-20T04:01:45Z
2022-02-20T02:03:14Z,42.805,6.029,13.3044,4.60067,2470.52,2022-2-20T04:04:48Z
2022-02-20T02:06:17Z,42.805,6.029,13.3032,4.60068,2470.507,2022-2-20T04:07:51Z
2022-02-20T02:09:20Z,42.805,6.029,13.3029,4.60112,2470.53,2022-2-20T04:10:54Z
2022-02-20T02:12:23Z,42.805,6.029,13.3026,4.60079,2470.553,2022-2-20T04:13:57Z
2022-02-20T02:15:26Z,42.805,6.029,13.3020,4.60075,2470.507,2022-2-20T04:17:00Z
2022-02-20T02:18:30Z,42.805,6.029,13.3029,4.60092,2470.507,2022-2-20T04:20:04Z
2022-02-20T02:21:33Z,42.805,6.029,13.3014,4.60113,2470.544,2022-2-20T04:23:07Z
2022-02-20T02:24:36Z,42.805,6.029,13.3052,4.60089,2470.507,2022-2-20T04:26:10Z
2022-02-20T02:27:39Z,42.805,6.029,13.3031,4.60070,2470.507,2022-2-20T04:29:13Z
2022-02-20T02:30:42Z,42.805,6.029,13.3022,4.60122,2470.53,2022-2-20T04:32:16Z
2022-02-20T02:33:45Z,42.805,6.029,13.3030,4.60063,2470.507,2022-2-20T04:35:19Z
2022-02-20T02:36:48Z,42.805,6.029,13.3029,4.60087,2470.52,2022-2-20T04:38:22Z
2022-02-20T02:39:51Z,42.805,6.029,13.3023,4.60108,2470.483,2022-2-20T04:41:25Z
2022-02-20T02:42:55Z,42.805,6.029,13.3023,4.60086,2470.52,2022-2-20T04:44:29Z
2022-02-20T02:45:58Z,42.805,6.029,13.3036,4.60094,2470.52,2022-2-20T04:47:32Z
2022-02-20T02:49:01Z,42.805,6.029,13.3021,4.60084,2470.497,2022-2-20T04:50:35Z
2022-02-20T02:52:04Z,42.805,6.029,13.3029,4.60067,2470.483,2022-2-20T04:53:38Z
2022-02-20T02:55:07Z,42.805,6.029,13.3040,4.60084,2470.52,2022-2-20T04:56:41Z
2022-02-20T02:58:10Z,42.805,6.029,13.3018,4.60084,2470.52,2022-2-20T04:59:44Z
2022-02-20T03:01:13Z,42.805,6.029,13.3018,4.60135,2470.507,2022-2-20T05:02:47Z
2022-02-20T03:04:16Z,42.805,6.029,13.3022,4.60079,2470.497,2022-2-20T05:05:50Z
2022-02-20T03:07:20Z,42.805,6.029,13.3015,4.60099,2470.507,2022-2-20T05:08:54Z
2022-02-20T03:10:23Z,42.805,6.029,13.3018,4.60131,2470.46,2022-2-20T05:11:57Z
2022-02-20T03:13:26Z,42.805,6.029,13.3024,4.60093,2470.483,2022-2-20T05:15:00Z
2022-02-20T03:16:29Z,42.805,6.029,13.3029,4.60049,2470.474,2022-2-20T05:18:03Z
2022-02-20T03:19:32Z,42.805,6.029,13.3026,4.60101,2470.474,2022-2-20T05:21:06Z
2022-02-20T03:22:35Z,42.805,6.029,13.3037,4.60107,2470.507,2022-2-20T05:24:09Z
2022-02-20T03:25:38Z,42.805,6.029,13.3037,4.60104,2470.497,2022-2-20T05:27:12Z
2022-02-20T03:28:41Z,42.805,6.029,13.3034,4.60110,2470.483,2022-2-20T05:30:15Z
2022-02-20T03:31:45Z,42.805,6.029,13.3039,4.60088,2470.46,2022-2-20T05:33:18Z
2022-02-20T03:34:48Z,42.805,6.029,13.3026,4.60088,2470.497,2022-2-20T05:36:22Z
2022-02-20T03:37:51Z,42.805,6.029,13.3041,4.60097,2470.497,2022-2-20T05:39:25Z
2022-02-20T03:40:54Z,42.805,6.029,13.3058,4.60092,2470.46,2022-2-20T05:42:28Z
2022-02-20T03:43:57Z,42.805,6.029,13.3038,4.60110,2470.483,2022-2-20T05:45:31Z
2022-02-20T03:47:00Z,42.805,6.029,13.3024,4.60073,2470.474,2022-2-20T05:48:34Z
2022-02-20T03:50:03Z,42.805,6.029,13.3036,4.60070,2470.46,2022-2-20T05:51:37Z
2022-02-20T03:53:06Z,42.805,6.029,13.3031,4.60120,2470.483,2022-2-20T05:54:40Z
2022-02-20T03:56:10Z,42.805,6.029,13.3015,4.60085,2470.52,2022-2-20T05:57:43Z
2022-02-20T03:59:13Z,42.805,6.029,13.3029,4.60082,2470.474,2022-2-20T06:00:47Z
2022-02-20T04:02:16Z,42.805,6.029,13.3029,4.60062,2470.483,2022-2-20T06:03:50Z
2022-02-20T04:05:19Z,42.805,6.029,13.3048,4.60078,2470.474,2022-2-20T06:06:53Z
2022-02-20T04:08:22Z,42.805,6.029,13.3031,4.60089,2470.497,2022-2-20T06:09:56Z
2022-02-20T04:11:25Z,42.805,6.029,13.3044,4.60051,2470.497,2022-2-20T06:12:59Z
2022-02-20T04:14:28Z,42.805,6.029,13.3051,4.60090,2470.483,2022-2-20T06:16:02Z
2022-02-20T04:17:31Z,42.805,6.029,13.3049,4.60069,2470.474,2022-2-20T06:19:05Z
2022-02-20T04:20:34Z,42.805,6.029,13.3056,4.60097,2470.46,2022-2-20T06:22:08Z
2022-02-20T04:23:38Z,42.805,6.029,13.3073,4.60080,2470.483,2022-2-20T06:25:12Z
2022-02-20T04:26:41Z,42.805,6.029,13.3046,4.60068,2470.497,2022-2-20T06:28:15Z
2022-02-20T04:29:44Z,42.805,6.029,13.3038,4.60097,2470.497,2022-2-20T06:31:18Z
2022-02-20T04:32:47Z,42.805,6.029,13.3047,4.60068,2470.497,2022-2-20T06:34:21Z
2022-02-20T04:35:50Z,42.805,6.029,13.3051,4.60101,2470.474,2022-2-20T06:37:24Z
2022-02-20T04:38:53Z,42.805,6.029,13.3036,4.60102,2470.483,2022-2-20T06:40:27Z
2022-02-20T04:41:56Z,42.805,6.029,13.3056,4.60095,2470.46,2022-2-20T06:43:30Z
2022-02-20T04:45:00Z,42.805,6.029,13.3041,4.60070,2470.46,2022-2-20T06:46:33Z
2022-02-20T04:48:03Z,42.805,6.029,13.3043,4.60067,2470.474,2022-2-20T06:49:37Z
2022-02-20T04:51:06Z,42.805,6.029,13.3036,4.60097,2470.46,2022-2-20T06:52:40Z
2022-02-20T04:54:09Z,42.805,6.029,13.3046,4.60086,2470.52,2022-2-20T06:55:43Z
2022-02-20T04:57:12Z,42.805,6.029,13.3052,4.60083,2470.507,2022-2-20T06:58:46Z
2022-02-20T05:00:15Z,42.805,6.029,13.3058,4.60099,2470.483,2022-2-20T07:01:49Z
2022-02-20T05:03:18Z,42.805,6.029,13.3054,4.60080,2470.544,2022-2-20T07:04:52Z
2022-02-20T05:06:21Z,42.805,6.029,13.3054,4.60079,2470.497,2022-2-20T07:07:55Z
2022-02-20T05:09:24Z,42.805,6.029,13.3057,4.60088,2470.497,2022-2-20T07:10:58Z
2022-02-20T05:12:28Z,42.805,6.029,13.3061,4.60084,2470.47,2022-2-20T07:14:02Z
2022-02-20T05:15:31Z,42.805,6.029,13.3069,4.60073,2470.507,2022-2-20T07:17:05Z
2022-02-20T05:18:34Z,42.805,6.029,13.3068,4.60075,2470.474,2022-2-20T07:20:08Z
2022-02-20T05:21:37Z,42.805,6.029,13.3077,4.60084,2470.497,2022-2-20T07:23:11Z
2022-02-20T05:24:40Z,42.805,6.029,13.3047,4.60108,2470.52,2022-2-20T07:26:14Z
2022-02-20T05:27:43Z,42.805,6.029,13.3063,4.60084,2470.483,2022-2-20T07:29:17Z
2022-02-20T05:30:46Z,42.805,6.029,13.3069,4.60085,2470.483,2022-2-20T07:32:20Z
2022-02-20T05:33:49Z,42.805,6.029,13.3073,4.60105,2470.497,2022-2-20T07:35:23Z
2022-02-20T05:36:53Z,42.805,6.029,13.3074,4.60125,2470.544,2022-2-20T07:38:27Z
2022-02-20T05:39:56Z,42.805,6.029,13.3075,4.60112,2470.52,2022-2-20T07:41:30Z
2022-02-20T05:42:59Z,42.805,6.029,13.3079,4.60122,2470.53,2022-2-20T07:44:33Z
2022-02-20T05:46:02Z,42.805,6.029,13.3085,4.60120,2470.53,2022-2-20T07:47:36Z
2022-02-20T05:49:05Z,42.805,6.029,13.3089,4.60105,2470.497,2022-2-20T07:50:39Z
2022-02-20T05:52:08Z,42.805,6.029,13.3061,4.60101,2470.52,2022-2-20T07:53:42Z
2022-02-20T05:55:11Z,42.805,6.029,13.3063,4.60126,2470.53,2022-2-20T07:56:45Z
2022-02-20T05:58:14Z,42.805,6.029,13.3052,4.60115,2470.544,2022-2-20T07:59:48Z
2022-02-20T06:01:18Z,42.805,6.029,13.3006,4.60107,2470.553,2022-2-20T08:02:52Z
2022-02-20T06:04:21Z,42.805,6.029,13.3000,4.60135,2470.567,2022-2-20T08:05:55Z
2022-02-20T06:07:24Z,42.805,6.029,13.3004,4.60165,2470.507,2022-2-20T08:08:58Z
2022-02-20T06:10:27Z,42.805,6.029,13.3006,4.60125,2470.567,2022-2-20T08:12:01Z
2022-02-20T06:13:30Z,42.805,6.029,13.3000,4.60115,2470.567,2022-2-20T08:15:04Z
2022-02-20T06:16:33Z,42.805,6.029,13.2998,4.60078,2470.577,2022-2-20T08:18:07Z
2022-02-20T06:19:36Z,42.805,6.029,13.2998,4.60066,2470.614,2022-2-20T08:21:10Z
2022-02-20T06:22:39Z,42.805,6.029,13.3001,4.60069,2470.577,2022-2-20T08:24:13Z
2022-02-20T06:25:43Z,42.805,6.029,13.2999,4.60072,2470.591,2022-2-20T08:27:16Z
2022-02-20T06:28:46Z,42.805,6.029,13.2999,4.60070,2470.577,2022-2-20T08:30:20Z
2022-02-20T06:31:49Z,42.805,6.029,13.3000,4.60057,2470.591,2022-2-20T08:33:23Z
2022-02-20T06:34:52Z,42.805,6.029,13.3000,4.60062,2470.577,2022-2-20T08:36:26Z
2022-02-20T06:37:55Z,42.805,6.029,13.2999,4.60063,2470.591,2022-2-20T08:39:29Z
2022-02-20T06:40:58Z,42.805,6.029,13.3001,4.60066,2470.553,2022-2-20T08:42:32Z
2022-02-20T06:44:01Z,42.805,6.029,13.3003,4.60069,2470.6,2022-2-20T08:45:35Z
2022-02-20T06:47:04Z,42.805,6.029,13.3000,4.60057,2470.614,2022-2-20T08:48:38Z
2022-02-20T06:50:07Z,42.805,6.029,13.3001,4.60044,2470.577,2022-2-20T08:51:41Z
2022-02-20T06:53:11Z,42.805,6.029,13.3000,4.60043,2470.6,2022-2-20T08:54:45Z
2022-02-20T06:56:14Z,42.805,6.029,13.3000,4.60052,2470.553,2022-2-20T08:57:48Z
2022-02-20T06:59:17Z,42.805,6.029,13.2999,4.60045,2470.6,2022-2-20T09:00:51Z
2022-02-20T07:02:20Z,42.805,6.029,13.3001,4.60039,2470.637,2022-2-20T09:03:54Z
2022-02-20T07:05:23Z,42.805,6.029,13.3000,4.60045,2470.624,2022-2-20T09:06:57Z
2022-02-20T07:08:26Z,42.805,6.029,13.3004,4.60052,2470.637,2022-2-20T09:10:00Z
2022-02-20T07:11:29Z,42.805,6.029,13.3004,4.60036,2470.661,2022-2-20T09:13:03Z
2022-02-20T07:14:32Z,42.805,6.029,13.3006,4.60035,2470.624,2022-2-20T09:16:06Z
2022-02-20T07:17:36Z,42.805,6.029,13.3007,4.60035,2470.624,2022-2-20T09:19:10Z
2022-02-20T07:20:39Z,42.805,6.029,13.3003,4.60036,2470.67,2022-2-20T09:22:13Z
2022-02-20T07:23:42Z,42.805,6.029,13.3007,4.60037,2470.646,2022-2-20T09:25:16Z
2022-02-20T07:26:45Z,42.805,6.029,13.3009,4.60052,2470.624,2022-2-20T09:28:19Z
2022-02-20T07:29:48Z,42.805,6.029,13.3011,4.60041,2470.646,2022-2-20T09:31:22Z
2022-02-20T07:32:51Z,42.805,6.029,13.3019,4.60035,2470.661,2022-2-20T09:34:25Z
2022-02-20T07:35:54Z,42.805,6.029,13.3016,4.60037,2470.646,2022-2-20T09:37:28Z
2022-02-20T07:38:57Z,42.805,6.029,13.3004,4.60034,2470.684,2022-2-20T09:40:31Z
2022-02-20T07:42:01Z,42.805,6.029,13.3013,4.60033,2470.646,2022-2-20T09:43:35Z
2022-02-20T07:45:04Z,42.805,6.029,13.3004,4.60031,2470.684,2022-2-20T09:46:38Z
2022-02-20T07:48:07Z,42.805,6.029,13.3005,4.60036,2470.67,2022-2-20T09:49:41Z
2022-02-20T07:51:10Z,42.805,6.029,13.3001,4.60029,2470.684,2022-2-20T09:52:44Z
2022-02-20T07:54:13Z,42.805,6.029,13.3007,4.60030,2470.67,2022-2-20T09:55:47Z
2022-02-20T07:57:16Z,42.805,6.029,13.3004,4.60031,2470.67,2022-2-20T09:58:50Z
2022-02-20T08:00:19Z,42.805,6.029,13.3009,4.60031,2470.646,2022-2-20T10:01:53Z
2022-02-20T08:03:22Z,42.805,6.029,13.3002,4.60031,2470.707,2022-2-20T10:04:56Z
2022-02-20T08:06:26Z,42.805,6.029,13.3003,4.60031,2470.684,2022-2-20T10:08:00Z
2022-02-20T08:09:29Z,42.805,6.029,13.3007,4.60031,2470.684,2022-2-20T10:11:03Z
2022-02-20T08:12:32Z,42.805,6.029,13.3003,4.60030,2470.707,2022-2-20T10:14:06Z
2022-02-20T08:15:35Z,42.805,6.029,13.2998,4.60031,2470.707,2022-2-20T10:17:09Z
2022-02-20T08:18:38Z,42.805,6.029,13.3000,4.60033,2470.707,2022-2-20T10:20:12Z
2022-02-20T08:21:41Z,42.805,6.029,13.2999,4.60037,2470.693,2022-2-20T10:23:15Z
2022-02-20T08:24:44Z,42.805,6.029,13.2998,4.60033,2470.693,2022-2-20T10:26:18Z
2022-02-20T08:27:47Z,42.805,6.029,13.2999,4.60034,2470.73,2022-2-20T10:29:21Z
2022-02-20T08:30:51Z,42.805,6.029,13.2996,4.60030,2470.707,2022-2-20T10:32:25Z
2022-02-20T08:33:54Z,42.805,6.029,13.3000,4.60031,2470.717,2022-2-20T10:35:28Z
2022-02-20T08:36:57Z,42.805,6.029,13.3001,4.60029,2470.693,2022-2-20T10:38:31Z
2022-02-20T08:40:00Z,42.805,6.029,13.3005,4.60032,2470.693,2022-2-20T10:41:34Z
2022-02-20T08:43:03Z,42.805,6.029,13.2998,4.60033,2470.73,2022-2-20T10:44:37Z
2022-02-20T08:46:06Z,42.805,6.029,13.3002,4.60033,2470.717,2022-2-20T10:47:40Z
2022-02-20T08:49:09Z,42.805,6.029,13.2998,4.60029,2470.717,2022-2-20T10:50:43Z
2022-02-20T08:52:13Z,42.805,6.029,13.2999,4.60028,2470.717,2022-2-20T10:53:46Z
2022-02-20T08:55:16Z,42.805,6.029,13.2998,4.60030,2470.717,2022-2-20T10:56:50Z
2022-02-20T08:58:19Z,42.805,6.029,13.3003,4.60031,2470.693,2022-2-20T10:59:53Z
2022-02-20T09:01:22Z,42.805,6.029,13.3002,4.60029,2470.73,2022-2-20T11:02:56Z
2022-02-20T09:04:25Z,42.805,6.029,13.3000,4.60031,2470.73,2022-2-20T11:05:59Z
2022-02-20T09:07:28Z,42.805,6.029,13.2997,4.60031,2470.693,2022-2-20T11:09:02Z
2022-02-20T09:10:31Z,42.805,6.029,13.3004,4.60042,2470.717,2022-2-20T11:12:05Z
2022-02-20T09:13:34Z,42.805,6.029,13.3000,4.60033,2470.717,2022-2-20T11:15:08Z
2022-02-20T09:16:38Z,42.805,6.029,13.2997,4.60038,2470.693,2022-2-20T11:18:11Z
2022-02-20T09:19:41Z,42.805,6.029,13.2999,4.60033,2470.717,2022-2-20T11:21:15Z
2022-02-20T09:22:44Z,42.805,6.029,13.2998,4.60032,2470.754,2022-2-20T11:24:18Z
2022-02-20T09:25:47Z,42.805,6.029,13.3001,4.60033,2470.717,2022-2-20T11:27:21Z
2022-02-20T09:28:50Z,42.805,6.029,13.2997,4.60037,2470.693,2022-2-20T11:30:24Z
2022-02-20T09:31:53Z,42.805,6.029,13.2998,4.60042,2470.73,2022-2-20T11:33:27Z
2022-02-20T09:34:56Z,42.805,6.029,13.3000,4.60032,2470.74,2022-2-20T11:36:30Z
2022-02-20T09:37:59Z,42.805,6.029,13.2996,4.60031,2470.754,2022-2-20T11:39:33Z
2022-02-20T09:41:03Z,42.805,6.029,13.2997,4.60044,2470.74,2022-2-20T11:42:36Z
2022-02-20T09:44:06Z,42.805,6.029,13.2997,4.60030,2470.74,2022-2-20T11:45:40Z
2022-02-20T09:47:09Z,42.805,6.029,13.2998,4.60031,2470.717,2022-2-20T11:48:43Z
2022-02-20T09:50:12Z,42.805,6.029,13.3000,4.60030,2470.693,2022-2-20T11:51:46Z
2022-02-20T09:53:15Z,42.805,6.029,13.3000,4.60029,2470.717,2022-2-20T11:54:49Z
2022-02-20T09:56:18Z,42.805,6.029,13.3000,4.60028,2470.717,2022-2-20T11:57:52Z
2022-02-20T09:59:21Z,42.805,6.029,13.3000,4.60031,2470.717,2022-2-20T12:00:55Z
2022-02-20T10:02:24Z,42.805,6.029,13.2998,4.60033,2470.754,2022-2-20T12:03:58Z
2022-02-20T10:05:28Z,42.805,6.029,13.3000,4.60029,2470.693,2022-2-20T12:07:02Z
2022-02-20T10:08:31Z,42.805,6.029,13.2998,4.60029,2470.707,2022-2-20T12:10:05Z
2022-02-20T10:11:34Z,42.805,6.029,13.3000,4.60030,2470.693,2022-2-20T12:13:08Z
2022-02-20T10:14:37Z,42.805,6.029,13.3002,4.60034,2470.73,2022-2-20T12:16:11Z
2022-02-20T10:17:40Z,42.805,6.029,13.2996,4.60031,2470.679,2022-2-20T12:19:14Z
2022-02-20T10:20:43Z,42.805,6.029,13.2997,4.60031,2470.717,2022-2-20T12:22:17Z
2022-02-20T10:23:46Z,42.805,6.029,13.3005,4.60031,2470.684,2022-2-20T12:25:20Z
2022-02-20T10:26:49Z,42.805,6.029,13.3000,4.60031,2470.707,2022-2-20T12:28:23Z
2022-02-20T10:29:53Z,42.805,6.029,13.3000,4.60034,2470.67,2022-2-20T12:31:27Z
2022-02-20T10:32:56Z,42.805,6.029,13.2996,4.60036,2470.693,2022-2-20T12:34:30Z
2022-02-20T10:35:59Z,42.805,6.029,13.2998,4.60036,2470.707,2022-2-20T12:37:33Z
2022-02-20T10:39:02Z,42.805,6.029,13.2997,4.60027,2470.707,2022-2-20T12:40:36Z
2022-02-20T10:42:05Z,42.805,6.029,13.2995,4.60029,2470.693,2022-2-20T12:43:39Z
2022-02-20T10:45:08Z,42.805,6.029,13.3005,4.60029,2470.693,2022-2-20T12:46:42Z
2022-02-20T10:48:11Z,42.805,6.029,13.3000,4.60028,2470.693,2022-2-20T12:49:45Z
2022-02-20T10:51:15Z,42.805,6.029,13.2999,4.60027,2470.693,2022-2-20T12:52:48Z
2022-02-20T10:54:18Z,42.805,6.029,13.2999,4.60028,2470.693,2022-2-20T12:55:52Z
2022-02-20T10:57:21Z,42.805,6.029,13.3000,4.60031,2470.67,2022-2-20T12:58:55Z
2022-02-20T11:00:24Z,42.805,6.029,13.3000,4.60031,2470.698,2022-2-20T13:01:58Z
2022-02-20T11:03:27Z,42.805,6.029,13.3000,4.60037,2470.646,2022-2-20T13:05:01Z
2022-02-20T11:06:30Z,42.805,6.029,13.3000,4.60029,2470.693,2022-2-20T13:08:04Z
2022-02-20T11:09:33Z,42.805,6.029,13.3001,4.60029,2470.693,2022-2-20T13:11:07Z
2022-02-20T11:12:36Z,42.805,6.029,13.2998,4.60032,2470.684,2022-2-20T13:14:10Z
2022-02-20T11:15:40Z,42.805,6.029,13.2998,4.60030,2470.67,2022-2-20T13:17:13Z
2022-02-20T11:18:43Z,42.805,6.029,13.3002,4.60030,2470.67,2022-2-20T13:20:17Z
2022-02-20T11:21:46Z,42.805,6.029,13.2999,4.60030,2470.707,2022-2-20T13:23:20Z
2022-02-20T11:24:49Z,42.805,6.029,13.3000,4.60029,2470.707,2022-2-20T13:26:23Z
2022-02-20T11:27:52Z,42.805,6.029,13.2999,4.60031,2470.646,2022-2-20T13:29:26Z
2022-02-20T11:30:55Z,42.805,6.029,13.3000,4.60028,2470.661,2022-2-20T13:32:29Z
2022-02-20T11:33:58Z,42.805,6.029,13.3001,4.60028,2470.67,2022-2-20T13:35:32Z
2022-02-20T11:37:01Z,42.805,6.029,13.2999,4.60029,2470.646,2022-2-20T13:38:35Z
2022-02-20T11:40:05Z,42.805,6.029,13.2999,4.60039,2470.646,2022-2-20T13:41:39Z
2022-02-20T11:43:08Z,42.805,6.029,13.3000,4.60031,2470.646,2022-2-20T13:44:42Z
2022-02-20T11:46:11Z,42.805,6.029,13.3003,4.60029,2470.646,2022-2-20T13:47:45Z
2022-02-20T11:49:14Z,42.805,6.029,13.3003,4.60028,2470.637,2022-2-20T13:50:48Z
2022-02-20T11:52:17Z,42.805,6.029,13.2999,4.60029,2470.646,2022-2-20T13:53:51Z
2022-02-20T11:55:20Z,42.805,6.029,13.2999,4.60031,2470.646,2022-2-20T13:56:54Z
2022-02-20T11:58:23Z,42.805,6.029,13.3001,4.60031,2470.661,2022-2-20T13:59:57Z
2022-02-20T12:01:26Z,42.805,6.029,13.3001,4.60028,2470.624,2022-2-20T14:03:00Z
2022-02-20T12:04:30Z,42.805,6.029,13.3000,4.60029,2470.661,2022-2-20T14:06:04Z
2022-02-20T12:07:33Z,42.805,6.029,13.3001,4.60032,2470.684,2022-2-20T14:09:07Z
2022-02-20T12:10:36Z,42.805,6.029,13.2997,4.60029,2470.6,2022-2-20T14:12:10Z
2022-02-20T12:13:39Z,42.805,6.029,13.2996,4.60029,2470.614,2022-2-20T14:15:13Z
2022-02-20T12:16:42Z,42.805,6.029,13.2997,4.60029,2470.624,2022-2-20T14:18:16Z
2022-02-20T12:19:45Z,42.805,6.029,13.2999,4.60031,2470.646,2022-2-20T14:21:19Z
2022-02-20T12:22:48Z,42.805,6.029,13.2998,4.60028,2470.6,2022-2-20T14:24:22Z
2022-02-20T12:25:51Z,42.805,6.029,13.3000,4.60031,2470.637,2022-2-20T14:27:25Z
2022-02-20T12:28:55Z,42.805,6.029,13.2999,4.60029,2470.637,2022-2-20T14:30:29Z
2022-02-20T12:31:58Z,42.805,6.029,13.2998,4.60029,2470.614,2022-2-20T14:33:32Z
2022-02-20T12:35:01Z,42.805,6.029,13.2998,4.60028,2470.6,2022-2-20T14:36:35Z
2022-02-20T12:38:04Z,42.805,6.029,13.2999,4.60028,2470.624,2022-2-20T14:39:38Z
2022-02-20T12:41:07Z,42.805,6.029,13.2999,4.60031,2470.577,2022-2-20T14:42:41Z
2022-02-20T12:44:10Z,42.805,6.029,13.2998,4.60029,2470.577,2022-2-20T14:45:44Z
2022-02-20T12:47:13Z,42.805,6.029,13.3000,4.60029,2470.614,2022-2-20T14:48:47Z
2022-02-20T12:50:16Z,42.805,6.029,13.2999,4.60029,2470.614,2022-2-20T14:51:50Z
2022-02-20T12:53:20Z,42.805,6.029,13.3002,4.60033,2470.591,2022-2-20T14:54:54Z
2022-02-20T12:56:23Z,42.805,6.029,13.3000,4.60034,2470.624,2022-2-20T14:57:57Z
2022-02-20T12:59:26Z,42.805,6.029,13.3003,4.60033,2470.6,2022-2-20T15:01:00Z
2022-02-20T13:02:29Z,42.805,6.029,13.3002,4.60031,2470.6,2022-2-20T15:04:03Z
2022-02-20T13:05:32Z,42.805,6.029,13.3001,4.60032,2470.577,2022-2-20T15:07:06Z
2022-02-20T13:08:35Z,42.805,6.029,13.3002,4.60032,2470.614,2022-2-20T15:10:09Z
2022-02-20T13:11:38Z,42.805,6.029,13.3003,4.60035,2470.637,2022-2-20T15:13:12Z
2022-02-20T13:14:41Z,42.805,6.029,13.3001,4.60033,2470.591,2022-2-20T15:16:15Z
2022-02-20T13:17:45Z,42.805,6.029,13.3005,4.60038,2470.591,2022-2-20T15:19:19Z
2022-02-20T13:20:48Z,42.805,6.029,13.3005,4.60033,2470.553,2022-2-20T15:22:22Z
2022-02-20T13:23:51Z,42.805,6.029,13.3001,4.60033,2470.567,2022-2-20T15:25:25Z
2022-02-20T13:26:54Z,42.805,6.029,13.3019,4.60039,2470.567,2022-2-20T15:28:28Z
2022-02-20T13:29:57Z,42.805,6.029,13.3014,4.60033,2470.591,2022-2-20T15:31:31Z
2022-02-20T13:33:00Z,42.805,6.029,13.3008,4.60032,2470.553,2022-2-20T15:34:34Z
2022-02-20T13:36:03Z,42.805,6.029,13.3004,4.60033,2470.577,2022-2-20T15:37:37Z
2022-02-20T13:39:06Z,42.805,6.029,13.3003,4.60036,2470.577,2022-2-20T15:40:40Z
2022-02-20T13:42:10Z,42.805,6.029,13.3000,4.60034,2470.577,2022-2-20T15:43:44Z
2022-02-20T13:45:13Z,42.805,6.029,13.3003,4.60033,2470.567,2022-2-20T15:46:47Z
2022-02-20T13:48:16Z,42.805,6.029,13.3014,4.60039,2470.53,2022-2-20T15:49:50Z
2022-02-20T13:51:19Z,42.805,6.029,13.3009,4.60036,2470.591,2022-2-20T15:52:53Z
2022-02-20T13:54:22Z,42.805,6.029,13.3000,4.60033,2470.553,2022-2-20T15:55:56Z
2022-02-20T13:57:25Z,42.805,6.029,13.3003,4.60037,2470.53,2022-2-20T15:58:59Z
2022-02-20T14:00:28Z,42.805,6.029,13.3009,4.60039,2470.53,2022-2-20T16:02:02Z
2022-02-20T14:03:32Z,42.805,6.029,13.3003,4.60036,2470.553,2022-2-20T16:05:06Z
2022-02-20T14:06:35Z,42.805,6.029,13.3005,4.60040,2470.567,2022-2-20T16:08:09Z
2022-02-20T14:09:38Z,42.805,6.029,13.3005,4.60037,2470.53,2022-2-20T16:11:12Z
2022-02-20T14:12:41Z,42.805,6.029,13.3003,4.60033,2470.507,2022-2-20T16:14:15Z
2022-02-20T14:15:44Z,42.805,6.029,13.3002,4.60038,2470.567,2022-2-20T16:17:18Z
2022-02-20T14:18:47Z,42.805,6.029,13.3000,4.60033,2470.52,2022-2-20T16:20:21Z
2022-02-20T14:21:50Z,42.805,6.029,13.3003,4.60034,2470.53,2022-2-20T16:23:24Z
2022-02-20T14:24:53Z,42.805,6.029,13.3002,4.60035,2470.544,2022-2-20T16:26:27Z
2022-02-20T14:27:57Z,42.805,6.029,13.3005,4.60035,2470.567,2022-2-20T16:29:31Z
2022-02-20T14:31:00Z,42.805,6.029,13.3001,4.60034,2470.52,2022-2-20T16:32:34Z
2022-02-20T14:34:03Z,42.805,6.029,13.3001,4.60033,2470.53,2022-2-20T16:35:37Z
2022-02-20T14:37:06Z,42.805,6.029,13.2998,4.60036,2470.507,2022-2-20T16:38:40Z
2022-02-20T14:40:09Z,42.805,6.029,13.3006,4.60035,2470.567,2022-2-20T16:41:43Z
2022-02-20T14:43:12Z,42.805,6.029,13.3007,4.60035,2470.52,2022-2-20T16:44:46Z
2022-02-20T14:46:15Z,42.805,6.029,13.3017,4.60043,2470.53,2022-2-20T16:47:49Z
2022-02-20T14:49:19Z,42.805,6.029,13.3001,4.60036,2470.507,2022-2-20T16:50:52Z
2022-02-20T14:52:22Z,42.805,6.029,13.2999,4.60032,2470.507,2022-2-20T16:53:56Z
2022-02-20T14:55:25Z,42.805,6.029,13.3003,4.60031,2470.53,2022-2-20T16:56:59Z
2022-02-20T14:58:28Z,42.805,6.029,13.3006,4.60033,2470.544,2022-2-20T17:00:02Z
2022-02-20T15:01:31Z,42.805,6.029,13.3005,4.60034,2470.507,2022-2-20T17:03:05Z
2022-02-20T15:04:34Z,42.805,6.029,13.3001,4.60034,2470.483,2022-2-20T17:06:08Z
2022-02-20T15:07:37Z,42.805,6.029,13.3003,4.60036,2470.46,2022-2-20T17:09:11Z
2022-02-20T15:10:40Z,42.805,6.029,13.3006,4.60042,2470.544,2022-2-20T17:12:14Z